-- Directory of older time series plots --


-- Link to ARCHER Track page --

Geo IR 85-92GHz
Date/Time_(UTC) Source Sensor Vmax(kts) ARCHER Lat Lon Geo-ref Lat Lon 50% cert. rad. 95% cert. rad. Eye diam (deg) % cert. of eye
20220930 09:43:51 * SSMIS-18 85-92GHz 75.0 31.39 -78.99 31.20 -78.98 0.15 0.41 0.70 66.3
20220930 09:43:50 * SSMIS-18 85-92GHz 75.0 31.39 -78.99 31.20 -78.98 0.15 0.41 0.70 66.3
20220930 04:07:24 GMI 85-92GHz 73.4 30.02 -78.85 29.92 -78.92 0.20 0.57 2.80 13.8
20220929 21:55:04 * SSMIS-16 85-92GHz 68.3 29.14 -79.59 28.96 -79.74 0.22 0.62 2.20 10.9
20220929 21:16:50 SSMIS-18 85-92GHz 67.7 29.19 -79.90 29.11 -79.97 0.24 0.68 2.40 7.3
20220929 18:22:24 GMI 85-92GHz 65.0 28.69 -79.84 28.63 -79.91 0.30 0.84 2.80 4.5
20220929 10:36:22 SSMIS-16 85-92GHz 60.0 28.50 -80.92 28.63 -80.83 0.41 1.16 1.00 10.3
20220929 09:58:30 SSMIS-18 85-92GHz 55.0 *** *** *** *** *** *** 0.80 ***
20220929 09:57:42 * SSMIS-18 85-92GHz 60.0 28.11 -81.01 27.93 -81.09 0.28 0.79 0.80 16.4
20220929 04:57:24 * GMI 85-92GHz 67.0 27.26 -81.02 27.33 -80.95 0.27 0.76 1.90 5.1
20220928 22:07:25 SSMIS-16 85-92GHz 114.4 26.91 -81.81 26.77 -81.99 0.15 0.42 0.30 65.8
20220928 22:07:05 SSMIS-16 85-92GHz 111.0 26.91 -81.82 26.77 -82.00 0.15 0.42 0.30 64.1
20220928 21:28:47 * SSMIS-18 85-92GHz 114.7 26.95 -82.18 26.87 -82.28 0.13 0.36 0.10 89.8
20220928 19:12:24 GMI 85-92GHz 128.0 *** *** *** *** *** *** 0.50 ***
20220928 18:31:21 * AMSR2 85-92GHz 132.4 26.65 -82.29 26.57 -82.35 0.11 0.31 0.60 100.0
20220928 10:49:49 * SSMIS-16 85-92GHz 129.2 26.01 -82.81 26.12 -82.77 0.10 0.28 0.70 100.0
20220928 10:11:46 SSMIS-18 85-92GHz 120.0 *** *** *** *** *** *** 0.70 ***
20220928 10:11:24 SSMIS-18 85-92GHz 130.1 25.89 -82.88 25.70 -82.93 0.10 0.27 0.70 100.0
20220928 10:11:22 SSMIS-18 85-92GHz 125.9 25.88 -82.89 25.68 -82.94 0.10 0.27 0.70 100.0
20220928 07:33:44 * AMSR2 85-92GHz 112.8 25.56 -82.92 25.73 -82.88 0.09 0.27 0.70 100.0
20220927 22:19:52 * SSMIS-16 85-92GHz 105.0 24.09 -83.07 24.30 -83.02 0.11 0.32 0.30 100.0
20220927 21:41:10 SSMIS-18 85-92GHz 105.8 24.06 -83.29 23.92 -83.34 0.11 0.32 0.30 100.0
20220927 11:46:41 * SSMIS-17 85-92GHz 113.1 22.54 -83.54 22.54 -83.54 0.09 0.27 0.40 100.0
20220927 11:46:40 * SSMIS-17 85-92GHz 109.6 22.57 -83.55 22.57 -83.55 0.10 0.28 0.40 100.0
20220927 11:03:50 SSMIS-16 85-92GHz 108.4 22.58 -83.65 22.67 -83.65 0.10 0.28 0.30 100.0
20220927 10:25:20 SSMIS-18 85-92GHz 107.4 *** *** *** *** *** *** 0.40 ***
20220927 06:51:48 * AMSR2 85-92GHz 101.4 21.97 -83.60 21.81 -83.60 0.10 0.27 0.40 100.0
20220926 22:31:55 * SSMIS-16 85-92GHz 83.8 20.34 -83.29 20.56 -83.35 0.11 0.30 0.60 100.0
20220926 21:53:01 * SSMIS-18 85-92GHz 83.2 20.32 -83.43 20.10 -83.37 0.10 0.28 0.60 100.0
20220926 19:22:23 GMI 85-92GHz 81.1 20.10 -83.08 20.35 -83.15 0.12 0.35 0.30 81.4
20220926 18:41:47 AMSR2 85-92GHz 80.6 19.97 -83.26 19.81 -83.20 0.12 0.34 0.30 100.0
20220926 12:01:20 * SSMIS-17 85-92GHz 73.4 18.65 -82.24 18.61 -82.21 0.16 0.46 0.50 76.3
20220926 12:01:19 * SSMIS-17 85-92GHz 70.0 18.65 -82.24 18.61 -82.21 0.18 0.50 0.50 73.4
20220926 06:02:23 GMI 85-92GHz 65.0 17.71 -81.81 17.66 -81.77 0.15 0.41 0.60 75.1
20220925 23:27:17 SSMIS-17 85-92GHz 49.1 16.56 -80.50 16.61 -80.54 0.21 0.59 0.50 58.8
20220925 22:43:58 * SSMIS-16 85-92GHz 47.9 16.52 -80.54 16.71 -80.69 0.18 0.52 0.40 84.0
20220925 12:15:31 * SSMIS-17 85-92GHz 48.6 15.24 -79.31 15.19 -79.24 0.56 1.58 0.30 0.9
20220925 12:15:30 * SSMIS-17 85-92GHz 45.0 15.22 -79.39 15.17 -79.32 0.48 1.35 0.90 2.3
20220925 09:11:58 SSMIS-18 85-92GHz 45.0 14.97 -78.45 14.93 -78.36 0.56 1.58 2.60 1.3
20220925 07:05:57 * AMSR2 85-92GHz 45.0 14.17 -78.34 14.15 -78.08 0.35 0.99 4.80 8.9
20220924 23:39:57 * SSMIS-17 85-92GHz 44.7 14.58 -77.77 14.59 -77.78 0.33 0.94 2.40 6.5
20220924 20:35:17 SSMIS-18 85-92GHz 42.2 *** *** *** *** *** *** 0.40 ***
20220924 19:32:23 * GMI 85-92GHz 41.3 14.50 -76.44 14.61 -76.64 0.45 1.27 2.20 5.8
20220924 18:52:29 AMSR2 85-92GHz 40.0 14.36 -76.50 14.34 -76.27 0.60 1.69 0.50 0.9
20220924 10:03:50 SSMIS-16 85-92GHz 38.4 14.16 -73.55 14.24 -73.16 0.44 1.23 0.80 6.7
20220924 09:24:35 * SSMIS-18 85-92GHz 37.8 14.40 -73.61 14.44 -73.42 0.34 0.97 0.90 27.5
20220924 06:17:23 * GMI 85-92GHz 35.2 14.24 -72.67 14.26 -72.53 0.45 1.28 1.30 4.0
20220923 21:27:53 SSMIS-16 85-92GHz 32.9 14.30 -71.26 14.28 -71.17 0.54 1.52 1.90 2.0
20220923 20:48:31 * SSMIS-18 85-92GHz 32.3 14.38 -71.18 14.38 -71.17 0.29 0.81 1.70 12.4
20220923 18:47:23 GMI 85-92GHz 30.0 *** *** *** *** *** *** 5.00 ***
20220923 18:09:14 AMSR2 85-92GHz 30.0 14.51 -70.83 14.49 -70.77 0.34 0.97 1.20 13.8
20220923 11:01:31 * SSMIS-17 85-92GHz 31.1 14.23 -68.79 14.27 -68.95 0.46 1.31 4.40 4.5
20220923 11:01:30 * SSMIS-17 85-92GHz 30.0 13.69 -69.19 13.74 -69.34 0.47 1.32 2.90 3.7
20220923 10:17:01 SSMIS-16 85-92GHz 30.0 *** *** *** *** *** *** 2.20 ***

Key:

Date/Time: UTC time. If this observation is used in the track it is marked with a "*". If it is used for its own 3-hr window, it is put in bold.

Source/sensor: Satellite source of the analyzed image.

Vmax: Maximum winds listed in the forecast center analysis/forecast, *not* ARCHER.

ARCHER lat/lon: Coordinates of the ARCHER algorithm, valid at the time of the observation. If no center fix could be found, then it is "***".

Geo ref lat/lon: Coordinates of the ARCHER algorithm, valid at the time of the *nearest geo image*.

50% cert. rad.: Radius of the circle (in degrees) that defines the area in which the ARCHER center of rotation is 50% certain. The lower the number, the more certain the position.

95% cert. rad.: Radius of the circle (in degrees) that defines the area in which the ARCHER center of rotation is 95% certain.

Eye diam (deg): ARCHER-resolved eye diameter (in degrees). Green: robust, yellow: less certain, red: not robust.

% cert. of eye: Percent certainty that an eye exists in this image, determined by ARCHER. Currently only available for IR and 85-92 GHz imagery.

Links to related versions: ARCHER Track page

This page automatically updates every 5 minutes